Time,TemperatureF,DewpointF,PressureIn,WindDirection,WindDirectionDegrees,WindSpeedMPH,WindSpeedGustMPH,Humidity,HourlyPrecipIn,Conditions,Clouds,dailyrainin,SoftwareType,DateUTC
2013-03-16 00:10:00,43.1,41.0,29.81,SSW,213,7.0,13.0,93,0.00,,,0.09,weatherlink.com 1.10,2013-03-16 04:10:00,
2013-03-16 00:25:00,43.4,41.0,29.78,SSW,194,7.0,10.0,91,0.00,,,0.09,weatherlink.com 1.10,2013-03-16 04:25:00,
2013-03-16 00:40:00,43.8,41.0,29.76,South,178,4.0,10.0,90,0.00,,,0.09,weatherlink.com 1.10,2013-03-16 04:40:00,
2013-03-16 00:56:00,43.6,41.0,29.74,ENE,67,4.0,7.0,90,0.00,,,0.09,weatherlink.com 1.10,2013-03-16 04:56:00,
2013-03-16 01:12:00,43.7,41.0,29.73,ENE,64,3.0,8.0,90,0.00,,,0.09,weatherlink.com 1.10,2013-03-16 05:12:00,
2013-03-16 01:26:00,43.5,41.0,29.73,ENE,69,3.0,7.0,90,0.01,,,0.10,weatherlink.com 1.10,2013-03-16 05:26:00,
2013-03-16 01:42:00,43.2,41.0,29.72,ENE,69,7.0,8.0,90,0.01,,,0.10,weatherlink.com 1.10,2013-03-16 05:42:00,
2013-03-16 02:12:00,42.5,40.0,29.71,ENE,65,2.0,7.0,92,0.01,,,0.10,weatherlink.com 1.10,2013-03-16 06:12:00,
2013-03-16 02:28:00,42.3,40.0,29.69,East,82,3.0,7.0,92,0.00,,,0.10,weatherlink.com 1.10,2013-03-16 06:28:00,
2013-03-16 02:42:00,41.8,40.0,29.70,East,94,1.0,8.0,92,0.00,,,0.00,weatherlink.com 1.10,2013-03-16 06:42:00,
2013-03-16 02:57:00,41.4,39.0,29.71,ENE,74,3.0,5.0,92,0.00,,,0.00,weatherlink.com 1.10,2013-03-16 06:57:00,
2013-03-16 03:15:00,41.1,39.0,29.70,East,80,3.0,6.0,93,0.00,,,0.00,weatherlink.com 1.10,2013-03-16 07:15:00,
2013-03-16 03:29:00,41.1,40.0,29.69,ENE,77,5.0,9.0,94,0.00,,,0.00,weatherlink.com 1.10,2013-03-16 07:29:00,
2013-03-16 03:43:00,41.3,40.0,29.70,ENE,78,5.0,8.0,94,0.00,,,0.00,weatherlink.com 1.10,2013-03-16 07:43:00,
2013-03-16 03:58:00,41.3,40.0,29.68,ENE,62,8.0,9.0,94,0.00,,,0.00,weatherlink.com 1.10,2013-03-16 07:58:00,
2013-03-16 04:14:00,41.1,40.0,29.68,ENE,76,5.0,9.0,94,0.00,,,0.00,weatherlink.com 1.10,2013-03-16 08:14:00,
2013-03-16 04:29:00,41.1,40.0,29.67,East,80,6.0,9.0,94,0.00,,,0.00,weatherlink.com 1.10,2013-03-16 08:29:00,
2013-03-16 04:45:00,40.9,40.0,29.67,East,79,8.0,10.0,95,0.00,,,0.00,weatherlink.com 1.10,2013-03-16 08:45:00,
2013-03-16 04:59:00,41.2,40.0,29.67,East,79,6.0,9.0,95,0.00,,,0.00,weatherlink.com 1.10,2013-03-16 08:59:00,
2013-03-16 05:14:00,41.3,40.0,29.67,East,97,2.0,10.0,95,0.00,,,0.00,weatherlink.com 1.10,2013-03-16 09:14:00,
2013-03-16 05:32:00,41.3,40.0,29.66,East,80,6.0,9.0,95,0.00,,,0.00,weatherlink.com 1.10,2013-03-16 09:32:00,
2013-03-16 05:47:00,41.3,40.0,29.66,ENE,67,7.0,10.0,94,0.00,,,0.00,weatherlink.com 1.10,2013-03-16 09:47:00,
2013-03-16 06:01:00,40.8,39.0,29.64,ENE,76,9.0,10.0,94,0.00,,,0.00,weatherlink.com 1.10,2013-03-16 10:01:00,
2013-03-16 06:16:00,40.4,39.0,29.65,ENE,76,7.0,9.0,94,0.00,,,0.00,weatherlink.com 1.10,2013-03-16 10:16:00,
2013-03-16 06:31:00,40.0,39.0,29.65,East,90,2.0,9.0,94,0.00,,,0.00,weatherlink.com 1.10,2013-03-16 10:31:00,
2013-03-16 06:47:00,40.2,39.0,29.64,East,89,3.0,10.0,95,0.00,,,0.00,weatherlink.com 1.10,2013-03-16 10:47:00,
2013-03-16 07:01:00,40.2,39.0,29.67,NE,51,4.0,9.0,95,0.00,,,0.00,weatherlink.com 1.10,2013-03-16 11:01:00,
2013-03-16 07:19:00,40.3,39.0,29.68,NE,46,6.0,9.0,96,0.00,,,0.00,weatherlink.com 1.10,2013-03-16 11:19:00,
2013-03-16 07:33:00,40.4,39.0,29.68,NE,49,3.0,11.0,96,0.00,,,0.00,weatherlink.com 1.10,2013-03-16 11:33:00,
2013-03-16 07:49:00,40.3,39.0,29.69,ENE,58,5.0,10.0,96,0.00,,,0.00,weatherlink.com 1.10,2013-03-16 11:49:00,
2013-03-16 08:02:00,40.0,39.0,29.68,NE,49,6.0,9.0,96,0.00,,,0.00,weatherlink.com 1.10,2013-03-16 12:02:00,
2013-03-16 08:18:00,39.5,39.0,29.68,NE,55,5.0,10.0,96,0.00,,,0.00,weatherlink.com 1.10,2013-03-16 12:18:00,
2013-03-16 08:34:00,39.2,38.0,29.69,ENE,67,9.0,11.0,96,0.00,,,0.00,weatherlink.com 1.10,2013-03-16 12:34:00,
2013-03-16 08:49:00,38.9,38.0,29.69,NE,55,8.0,12.0,96,0.00,,,0.00,weatherlink.com 1.10,2013-03-16 12:49:00,
2013-03-16 09:04:00,38.4,37.0,29.71,NNE,24,5.0,10.0,96,0.00,,,0.00,weatherlink.com 1.10,2013-03-16 13:04:00,
2013-03-16 09:19:00,38.0,37.0,29.71,NNE,26,9.0,10.0,96,0.00,,,0.00,weatherlink.com 1.10,2013-03-16 13:19:00,
2013-03-16 09:36:00,37.7,37.0,29.71,NNE,31,7.0,12.0,96,0.00,,,0.00,weatherlink.com 1.10,2013-03-16 13:36:00,
2013-03-16 09:49:00,37.7,37.0,29.71,ENE,58,5.0,13.0,97,0.00,,,0.00,weatherlink.com 1.10,2013-03-16 13:49:00,
2013-03-16 10:06:00,37.7,37.0,29.72,NNE,15,6.0,11.0,97,0.00,,,0.00,weatherlink.com 1.10,2013-03-16 14:06:00,
2013-03-16 10:20:00,37.7,37.0,29.72,NNE,22,9.0,12.0,97,0.00,,,0.00,weatherlink.com 1.10,2013-03-16 14:20:00,
2013-03-16 10:36:00,37.6,37.0,29.72,NE,49,6.0,10.0,97,0.00,,,0.00,weatherlink.com 1.10,2013-03-16 14:36:00,
2013-03-16 10:51:00,37.6,37.0,29.74,NE,36,7.0,10.0,97,0.00,,,0.00,weatherlink.com 1.10,2013-03-16 14:51:00,
2013-03-16 11:06:00,37.7,37.0,29.75,North,355,8.0,10.0,97,0.00,,,0.00,weatherlink.com 1.10,2013-03-16 15:06:00,
2013-03-16 11:22:00,37.9,37.0,29.76,NNW,336,7.0,11.0,97,0.00,,,0.00,weatherlink.com 1.10,2013-03-16 15:22:00,
2013-03-16 11:37:00,37.9,37.0,29.78,NNE,31,4.0,9.0,97,0.00,,,0.00,weatherlink.com 1.10,2013-03-16 15:37:00,
2013-03-16 11:52:00,38.1,37.0,29.79,NNW,338,6.0,10.0,97,0.00,,,0.00,weatherlink.com 1.10,2013-03-16 15:52:00,
2013-03-16 12:06:00,38.0,37.0,29.80,North,355,5.0,12.0,97,0.00,,,0.00,weatherlink.com 1.10,2013-03-16 16:06:00,
2013-03-16 12:22:00,38.1,37.0,29.80,North,5,9.0,11.0,97,0.00,,,0.00,weatherlink.com 1.10,2013-03-16 16:22:00,
2013-03-16 12:39:00,37.9,37.0,29.81,NNE,19,6.0,13.0,96,0.00,,,0.00,weatherlink.com 1.10,2013-03-16 16:39:00,
2013-03-16 12:52:00,37.7,37.0,29.82,North,9,4.0,13.0,96,0.00,,,0.00,weatherlink.com 1.10,2013-03-16 16:52:00,
2013-03-16 13:08:00,37.4,36.0,29.83,NNW,342,5.0,13.0,96,0.00,,,0.00,weatherlink.com 1.10,2013-03-16 17:08:00,
2013-03-16 13:23:00,37.4,36.0,29.85,North,5,4.0,12.0,96,0.00,,,0.00,weatherlink.com 1.10,2013-03-16 17:23:00,
2013-03-16 13:38:00,37.4,36.0,29.86,North,355,8.0,13.0,95,0.00,,,0.00,weatherlink.com 1.10,2013-03-16 17:38:00,
2013-03-16 13:54:00,37.4,36.0,29.86,NNW,348,2.0,12.0,95,0.00,,,0.00,weatherlink.com 1.10,2013-03-16 17:54:00,
2013-03-16 14:08:00,37.5,36.0,29.87,North,5,7.0,9.0,95,0.00,,,0.00,weatherlink.com 1.10,2013-03-16 18:08:00,
2013-03-16 14:26:00,37.4,36.0,29.88,NNE,18,11.0,13.0,94,0.00,,,0.00,weatherlink.com 1.10,2013-03-16 18:26:00,
2013-03-16 14:39:00,37.5,36.0,29.88,NNW,348,4.0,12.0,94,0.00,,,0.00,weatherlink.com 1.10,2013-03-16 18:39:00,
2013-03-16 14:56:00,37.5,36.0,29.89,North,11,7.0,9.0,93,0.00,,,0.00,weatherlink.com 1.10,2013-03-16 18:56:00,
2013-03-16 15:09:00,37.7,36.0,29.89,North,5,4.0,9.0,93,0.00,,,0.00,weatherlink.com 1.10,2013-03-16 19:09:00,
2013-03-16 15:24:00,37.3,36.0,29.90,North,355,4.0,15.0,93,0.00,,,0.00,weatherlink.com 1.10,2013-03-16 19:24:00,
2013-03-16 15:42:00,37.3,36.0,29.91,NNE,13,1.0,7.0,93,0.00,,,0.00,weatherlink.com 1.10,2013-03-16 19:42:00,
2013-03-16 15:57:00,37.1,35.0,29.92,North,355,3.0,11.0,93,0.00,,,0.00,weatherlink.com 1.10,2013-03-16 19:57:00,
2013-03-16 16:11:00,37.1,35.0,29.92,North,9,2.0,10.0,93,0.00,,,0.00,weatherlink.com 1.10,2013-03-16 20:11:00,
2013-03-16 16:42:00,36.8,35.0,29.93,NNE,19,8.0,9.0,93,0.00,,,0.00,weatherlink.com 1.10,2013-03-16 20:42:00,
2013-03-16 16:56:00,36.7,35.0,29.94,NNE,15,5.0,10.0,92,0.00,,,0.00,weatherlink.com 1.10,2013-03-16 20:56:00,
2013-03-16 17:11:00,36.5,34.0,29.95,North,349,7.0,11.0,90,0.00,,,0.00,weatherlink.com 1.10,2013-03-16 21:11:00,
2013-03-16 17:27:00,36.3,33.0,29.96,NNE,16,4.0,12.0,89,0.00,,,0.00,weatherlink.com 1.10,2013-03-16 21:27:00,
2013-03-16 17:42:00,36.3,33.0,29.97,North,5,2.0,11.0,88,0.00,,,0.00,weatherlink.com 1.10,2013-03-16 21:42:00,
2013-03-16 17:57:00,36.1,33.0,29.97,North,5,5.0,11.0,87,0.00,,,0.00,weatherlink.com 1.10,2013-03-16 21:57:00,
2013-03-16 18:13:00,35.9,32.0,29.98,North,355,3.0,10.0,86,0.00,,,0.00,weatherlink.com 1.10,2013-03-16 22:13:00,
2013-03-16 18:27:00,35.7,32.0,29.98,North,350,3.0,11.0,87,0.00,,,0.00,weatherlink.com 1.10,2013-03-16 22:27:00,
2013-03-16 18:42:00,35.5,32.0,29.99,North,11,5.0,11.0,86,0.00,,,0.00,weatherlink.com 1.10,2013-03-16 22:42:00,
2013-03-16 18:58:00,35.1,31.0,30.00,North,5,4.0,11.0,86,0.00,,,0.00,weatherlink.com 1.10,2013-03-16 22:58:00,
2013-03-16 19:13:00,34.7,31.0,30.01,NNE,24,1.0,9.0,87,0.00,,,0.00,weatherlink.com 1.10,2013-03-16 23:13:00,
2013-03-16 19:29:00,34.3,31.0,30.01,NNE,25,5.0,8.0,86,0.00,,,0.00,weatherlink.com 1.10,2013-03-16 23:29:00,
2013-03-16 19:43:00,34.1,30.0,30.02,North,11,6.0,9.0,86,0.00,,,0.00,weatherlink.com 1.10,2013-03-16 23:43:00,
2013-03-16 19:59:00,34.0,30.0,30.02,NNE,21,5.0,9.0,86,0.00,,,0.00,weatherlink.com 1.10,2013-03-16 23:59:00,
2013-03-16 20:14:00,33.8,30.0,30.01,NNE,17,6.0,10.0,86,0.00,,,0.00,weatherlink.com 1.10,2013-03-17 00:14:00,
2013-03-16 20:29:00,33.6,30.0,30.02,NE,46,5.0,9.0,85,0.00,,,0.00,weatherlink.com 1.10,2013-03-17 00:29:00,
2013-03-16 20:44:00,33.5,30.0,30.03,North,350,5.0,9.0,85,0.00,,,0.00,weatherlink.com 1.10,2013-03-17 00:44:00,
2013-03-16 21:00:00,33.4,29.0,30.02,NNE,26,7.0,9.0,84,0.00,,,0.00,weatherlink.com 1.10,2013-03-17 01:00:00,
2013-03-16 21:17:00,33.3,29.0,30.03,North,349,6.0,8.0,84,0.00,,,0.00,weatherlink.com 1.10,2013-03-17 01:17:00,
2013-03-16 21:32:00,33.3,29.0,30.04,NNE,26,6.0,9.0,83,0.00,,,0.00,weatherlink.com 1.10,2013-03-17 01:32:00,
2013-03-16 21:46:00,33.3,29.0,30.05,NNE,27,4.0,9.0,84,0.00,,,0.00,weatherlink.com 1.10,2013-03-17 01:46:00,
2013-03-16 22:02:00,33.2,29.0,30.06,NE,36,1.0,5.0,84,0.00,,,0.00,weatherlink.com 1.10,2013-03-17 02:02:00,
2013-03-16 22:17:00,33.2,29.0,30.07,NE,34,1.0,4.0,84,0.00,,,0.00,weatherlink.com 1.10,2013-03-17 02:17:00,
2013-03-16 22:31:00,33.3,29.0,30.07,NE,38,2.0,3.0,84,0.00,,,0.00,weatherlink.com 1.10,2013-03-17 02:31:00,
2013-03-16 22:46:00,33.3,29.0,30.08,NNE,30,1.0,3.0,84,0.00,,,0.00,weatherlink.com 1.10,2013-03-17 02:46:00,
2013-03-16 23:02:00,33.3,29.0,30.09,NNE,30,0.0,4.0,84,0.00,,,0.00,weatherlink.com 1.10,2013-03-17 03:02:00,
2013-03-16 23:17:00,33.4,29.0,30.09,NNE,30,2.0,3.0,84,0.00,,,0.00,weatherlink.com 1.10,2013-03-17 03:17:00,
2013-03-16 23:32:00,33.3,29.0,30.09,NNE,30,0.0,3.0,84,0.00,,,0.00,weatherlink.com 1.10,2013-03-17 03:32:00,
2013-03-16 23:49:00,33.4,29.0,30.09,NNE,30,2.0,3.0,84,0.00,,,0.00,weatherlink.com 1.10,2013-03-17 03:49:00,